TimePDT,TemperatureF,Dew PointF,Humidity,Sea Level PressureIn,VisibilityMPH,Wind Direction,Wind SpeedMPH,Gust SpeedMPH,PrecipitationIn,Events,Conditions,WindDirDegrees,DateUTC
12:53 AM,64.0,39.9,41,29.97,10.0,Calm,Calm,-,N/A,,Clear,0,2013-10-26 07:53:00
1:53 AM,61.0,39.9,46,29.98,10.0,WSW,6.9,-,N/A,,Clear,250,2013-10-26 08:53:00
2:53 AM,62.1,37.9,41,29.98,10.0,West,3.5,-,N/A,,Clear,270,2013-10-26 09:53:00
3:53 AM,63.0,36.0,37,29.97,10.0,WSW,4.6,-,N/A,,Clear,250,2013-10-26 10:53:00
4:53 AM,61.0,32.0,34,29.98,10.0,Calm,Calm,-,N/A,,Clear,0,2013-10-26 11:53:00
5:53 AM,62.1,30.0,30,29.99,10.0,Calm,Calm,-,N/A,,Clear,0,2013-10-26 12:53:00
6:53 AM,59.0,35.1,41,29.99,10.0,WSW,5.8,-,N/A,,Clear,240,2013-10-26 13:53:00
7:53 AM,60.1,36.0,41,30.01,10.0,Calm,Calm,-,N/A,,Clear,0,2013-10-26 14:53:00
8:53 AM,66.9,39.0,36,30.03,10.0,Calm,Calm,-,N/A,,Clear,0,2013-10-26 15:53:00
9:53 AM,77.0,39.0,25,30.04,10.0,WNW,5.8,-,N/A,,Clear,300,2013-10-26 16:53:00
10:53 AM,82.0,36.0,19,30.03,10.0,WNW,4.6,-,N/A,,Clear,300,2013-10-26 17:53:00
11:53 AM,84.9,34.0,16,30.02,10.0,Calm,Calm,-,N/A,,Clear,0,2013-10-26 18:53:00
12:53 PM,89.1,28.0,11,29.99,10.0,West,3.5,-,N/A,,Clear,270,2013-10-26 19:53:00
1:53 PM,89.1,30.9,12,29.96,10.0,East,5.8,-,N/A,,Clear,100,2013-10-26 20:53:00
2:53 PM,90.0,33.1,13,29.95,10.0,East,4.6,-,N/A,,Clear,80,2013-10-26 21:53:00
3:53 PM,90.0,32.0,13,29.94,10.0,ENE,3.5,-,N/A,,Clear,70,2013-10-26 22:53:00
4:53 PM,90.0,33.1,13,29.92,10.0,Calm,Calm,-,N/A,,Clear,0,2013-10-26 23:53:00
5:53 PM,86.0,35.1,16,29.91,10.0,SW,4.6,-,N/A,,Clear,220,2013-10-27 00:53:00
6:53 PM,80.1,39.0,23,29.92,10.0,Calm,Calm,-,N/A,,Clear,0,2013-10-27 01:53:00
7:53 PM,72.0,42.1,34,29.92,10.0,Calm,Calm,-,N/A,,Clear,0,2013-10-27 02:53:00
8:53 PM,71.1,41.0,34,29.93,10.0,Calm,Calm,-,N/A,,Clear,0,2013-10-27 03:53:00
9:53 PM,66.9,43.0,42,29.92,10.0,Calm,Calm,-,N/A,,Clear,0,2013-10-27 04:53:00
10:53 PM,66.0,39.9,38,29.92,10.0,West,4.6,-,N/A,,Clear,260,2013-10-27 05:53:00
11:53 PM,66.0,36.0,33,29.91,10.0,WNW,4.6,-,N/A,,Clear,300,2013-10-27 06:53:00